Location: Chrząstowo
(52.0654°N, 17.1290°E)
Time: 10:19:34
(UTC+01:00)

Envisat - Pass Details

Date: 20 December 2019
Orbit: 764 x 766 km, 98.1° (Epoch: 26 January)

Event Time Altitude Azimuth Distance (km) Brightness Sun altitude
Rises 17:26:03 0° 161° (SSE) 3,223 6.2 -14.9°
Reaches altitude 10° 17:28:21 10° 160° (SSE) 2,301 5.5 -15.2°
Maximum altitude 17:33:26 83° 73° (ENE) 779 2.9 -16.0°
Drops below altitude 10° 17:38:33 10° 347° (NNW) 2,317 5.5 -16.7°
Sets 17:40:52 0° 346° (NNW) 3,248 6.2 -17.1°
